User: anonymous   Login
Location: American Medical Response
(33.3472°N, 96.5511°W)
Time: 22:56:25
(UTC+00:00)
Language:

SJ 16-02 - Orbit

View from above orbital plane
View from above orbital plane
View from above satellite
View from above satellite

Ground track
Ground track

The orbit data is extracted from the following two-line orbital elements,

1 41634U 16043A   22146.41651172  .00001047  00000-0  12245-3 0  9993
2 41634  75.0032 188.7206 0006921  23.7942 336.3542 14.86149697320381
Epoch (UTC): 26 May 2022 09:59:46
Eccentricity: 0.0006921
inclination: 75.0032°
perigee height: 605 km
apogee height: 615 km
right ascension of ascending node: 188.7206°
argument of perigee: 23.7942°
revolutions per day: 14.86149697
mean anomaly at epoch: 336.3542°
orbit number at epoch: 32038

The dashed part of the orbit path shows where the satellite is in the earth's shadow,  

DLR